Location: *
(46.3500°N, 10.9000°E)
Time: 21:33:28
(UTC+00:00)

A-11 Canister half - Pass Details

Date: 29 April 2021
Orbit: 1526 x 1682 km, 47.3° (Epoch: 13 May)

Event Time Altitude Azimuth Distance (km) Brightness Sun altitude
Rises 16:15:29 0° 283° (WNW) 4,890 13.1 20.6°
Reaches altitude 10° 16:18:36 10° 283° (WNW) 3,917 13.1 20.0°
Maximum altitude 16:28:44 85° 197° (SSW) 1,691 9.6 18.3°
Drops below altitude 10° 16:38:56 10° 111° (ESE) 3,936 10.6 16.5°
Sets 16:42:04 0° 111° (ESE) 4,915 11.0 16.0°
